COSMOS 249 DEB *, 4008

Orbit data source: Space-Track

COSMOS 249 DEB *, 4008 is space debris in LEO originally from a launch on Sun, 20 Oct 1968 UTC launched from the Tyuratam Missile And Space Complex (TTMTR). Debris objects in space refer to the collection of defunct objects orbiting the Earth. Examples of debris include non-operational satellites, rocket bodies, and fragments generated from explosions, collisions, or faulty payload assembly.

Loading next visibility...
Identifier
4008, 1968-091BY
Orbit
LEO
Country
Flag of CISCIS
Related business
Manufacturer
Unknown
Mission
Spacecraft
Bus & Motor
Unknown
Mass
Unknown
Launch date (UTC)
1968-10-20 (57 years ago)
Launch vehicle
Unknown
Launch site
Tyuratam Missile And Space Complex (TTMTR)
Object type
Payload
Rocket body
Debris
Shape & HBR
Unknown shape, 0.1 m
Radar Cross Section
Small (<0.1 m²)

Expand to show TLE details & history
Last TLE update: 9 hours ago

TLE from 9 hours ago
0 COSMOS 249 DEB *
1 04008U 68091BY  25288.57320695  .00002546  00000-0  56296-3 0  9996
2 04008  62.8472 198.5776 0526948 172.2469 188.7151 13.98104587806473
Epoch: 2025-10-15T13:45Z
TLE epoch observation values (Epoch: 2025-10-15T13:45:25.080Z)
Latitude
Longitude
-32.12224°
Altitude
1,281.708 km
Speed
7.025 km/s
True Right ascension
13h 14m 18s
True Declination
0° 00' 00"
Sunlit
Object was in daylight at epoch
Visualization orbit readout
Latitude
Unknown
Longitude
Unknown
Altitude
Unknown
Speed
Unknown
Apparent Right ascension
Unknown
Apparent Declination
Unknown
Sunlit
N/A
Visualization observer readout
Local Sidereal Time
17:44:35
Azimuth
Unknown
Elevation
Unknown
Doppler factor
Unknown
Orbital elements
Apogee altitude
1,282.71 km
Perigee altitude
515.751 km
Semi-major axis
7,277.368 km
Eccentricity
0.05269
Inclination
62.8472°
RAAN
198.5776°
Arg. of periapsis
172.2469°
True anomaly
187.85624°
Mean anomaly
188.7151°
Eccentric anomaly
188.28029°
Mean motion
3.49608 °/min
Orbital period
102.97 mins
BSTAR
0.00056296
Loading maneuver chart data...
Computing Atmospheric mass density...

Documentation

Showing up to 5 results
|